"read_dt","SO2 (ppb)","flags","PMT voltage (V)","lamp voltage (V)","lamp intensity (Hz)","internal temp (C)","react chamber temp (C)","sample flow (l/min)","pres (mmHg)","SO2 bkg (ppb)","SO2 coefficient"
2018-07-02 00:00:00,-3.585E-01,4C000000*,-702.6,971.469,90,29.5,45.1,0.407,735.4,2.1,1.050*
2018-07-02 00:01:00,-2.943E-01,4C000000*,-703.0,972.682,90,29.5,45.0,0.407,735.4,2.1,1.050*
2018-07-02 00:02:00,-3.896E-01,4C000000*,-702.3,973.491,90,29.5,45.0,0.407,735.4,2.1,1.050*
2018-07-02 00:03:00,-3.569E-01,4C000000*,-702.6,971.873,90,29.5,45.1,0.407,735.4,2.1,1.050*
2018-07-02 00:04:00,-3.189E-01,4C000000*,-702.6,972.682,90,29.5,44.9,0.407,735.4,2.1,1.050*
2018-07-02 00:05:00,-3.032E-01,4C000000*,-702.6,971.469,90,29.5,45.2,0.407,735.4,2.1,1.050*
2018-07-02 00:06:00,-2.894E-01,4C000000*,-702.6,971.873,90,29.5,44.9,0.407,735.4,2.1,1.050*
2018-07-02 00:07:00,-2.525E-01,4C000000*,-702.3,971.873,90,29.5,45.1,0.407,735.4,2.1,1.050*
2018-07-02 00:08:00,-3.457E-01,4C000000*,-702.6,971.873,90,29.5,44.9,0.407,735.4,2.1,1.050*
2018-07-02 00:09:00,-3.293E-01,4C000000*,-702.6,971.469,90,29.5,45.0,0.407,735.4,2.1,1.050*
2018-07-02 00:10:00,-3.188E-01,4C000000*,-702.6,972.278,91,29.5,45.1,0.407,735.7,2.1,1.050*
2018-07-02 00:11:00,-2.368E-01,4C000000*,-702.3,971.469,90,29.5,44.9,0.407,735.7,2.1,1.050*
2018-07-02 00:12:00,-3.030E-01,4C000000*,-703.0,971.873,90,29.6,45.1,0.407,735.4,2.1,1.050*
2018-07-02 00:13:00,-3.247E-01,4C000000*,-702.6,973.491,90,29.5,44.9,0.407,735.4,2.1,1.050*
2018-07-02 00:14:00,-2.701E-01,4C000000*,-702.6,972.278,90,29.5,45.1,0.407,735.7,2.1,1.050*
2018-07-02 00:15:00,-2.728E-01,4C000000*,-702.6,972.278,90,29.5,44.8,0.407,735.4,2.1,1.050*
2018-07-02 00:16:00,-2.716E-01,4C000000*,-702.6,972.278,90,29.6,45.0,0.407,735.4,2.1,1.050*
2018-07-02 00:17:00,-2.924E-01,4C000000*,-702.6,971.469,90,29.6,45.1,0.407,735.4,2.1,1.050*
2018-07-02 00:18:00,-2.950E-01,4C000000*,-702.6,972.278,90,29.5,44.9,0.407,735.4,2.1,1.050*
2018-07-02 00:19:00,-2.984E-01,4C000000*,-702.6,971.873,91,29.5,45.1,0.407,735.1,2.1,1.050*
2018-07-02 00:20:00,-3.153E-01,4C000000*,-702.6,972.682,90,29.5,44.9,0.407,735.4,2.1,1.050*
2018-07-02 00:21:00,-3.370E-01,4C000000*,-702.6,971.065,91,29.5,45.2,0.407,735.4,2.1,1.050*
2018-07-02 00:22:00,-3.080E-01,4C000000*,,,,,,,,,
2018-07-02 00:23:00,-1.883E+00,4C000040*,-702.6,753.970,45,29.5,44.9,0.407,735.4,2.1,1.050*
2018-07-02 00:24:00,-7.616E-01,4C000000*,-702.3,960.958,87,29.5,45.2,0.407,735.1,2.1,1.050*
2018-07-02 00:25:00,-3.394E-01,4C000000*,-703.0,971.065,89,29.5,44.8,0.407,735.1,2.1,1.050*
2018-07-02 00:26:00,-3.170E-01,4C000000*,-702.6,971.469,91,29.5,45.1,0.407,735.4,2.1,1.050*
2018-07-02 00:27:00,-2.834E-01,4C000000*,-702.6,971.873,90,29.5,44.9,0.407,735.1,2.1,1.050*
2018-07-02 00:28:00,-3.106E-01,4C000000*,-702.6,970.661,90,29.5,44.9,0.407,735.1,2.1,1.050*
2018-07-02 00:29:00,-2.988E-01,4C000000*,-702.6,971.469,90,29.6,45.1,0.407,735.1,2.1,1.050*
2018-07-02 00:30:00,-3.550E-01,4C000000*,-702.6,970.661,90,29.6,44.9,0.407,735.1,2.1,1.050*
2018-07-02 00:31:00,-2.347E-01,4C000000*,-702.6,971.065,90,29.6,45.2,0.407,735.1,2.1,1.050*
2018-07-02 00:32:00,-3.559E-01,4C000000*,-702.6,970.256,91,29.5,44.8,0.407,735.1,2.1,1.050*
2018-07-02 00:33:00,-2.772E-01,4C000000*,-702.6,969.044,89,29.6,45.1,0.407,735.4,2.1,1.050*
2018-07-02 00:34:00,-3.304E-01,4C000000*,-702.6,971.065,89,29.6,44.9,0.407,735.1,2.1,1.050*
2018-07-02 00:35:00,-3.133E-01,4C000000*,-702.6,972.278,89,29.6,45.1,0.407,735.1,2.1,1.050*
2018-07-02 00:36:00,-3.076E-01,4C000000*,-702.6,971.065,87,29.6,45.1,0.407,735.1,2.1,1.050*
2018-07-02 00:37:00,-2.458E-01,4C000000*,-702.6,970.256,90,29.6,44.9,0.407,735.1,2.1,1.050*
2018-07-02 00:38:00,-2.537E-01,4C000000*,-702.6,971.469,91,29.6,45.2,0.407,735.1,2.1,1.050*
2018-07-02 00:39:00,-3.345E-01,4C000000*,-702.6,971.469,90,29.6,44.9,0.407,735.1,2.1,1.050*
2018-07-02 00:40:00,-3.254E-01,4C000000*,-702.6,970.256,91,29.7,45.1,0.407,735.1,2.1,1.050*
2018-07-02 00:41:00,-2.890E-01,4C000000*,-702.6,971.469,90,29.7,44.9,0.407,735.1,2.1,1.050*
2018-07-02 00:42:00,-3.563E-01,4C000000*,-702.6,970.661,89,29.7,45.0,0.407,735.4,2.1,1.050*
2018-07-02 00:43:00,-3.158E-01,4C000000*,-702.6,969.852,90,29.7,45.0,0.407,735.4,2.1,1.050*
2018-07-02 00:44:00,-2.607E-01,4C000000*,-702.6,970.256,90,29.7,44.9,0.407,735.4,2.1,1.050*
2018-07-02 00:45:00,-3.212E-01,4C000000*,-702.6,969.448,89,29.7,45.1,0.407,735.1,2.1,1.050*
2018-07-02 00:46:00,-2.492E-01,4C000000*,-702.3,969.448,89,29.7,44.9,0.407,735.1,2.1,1.050*
2018-07-02 00:47:00,-2.967E-01,4C000000*,-702.6,969.044,89,29.8,45.2,0.407,735.1,2.1,1.050*
2018-07-02 00:48:00,-3.614E-01,4C000000*,-702.6,970.661,89,29.7,44.9,0.407,735.1,2.1,1.050*
2018-07-02 00:49:00,-2.777E-01,4C000000*,-702.6,969.044,89,29.7,45.1,0.407,735.4,2.1,1.050*
2018-07-02 00:50:00,-2.264E-01,4C000000*,-702.6,969.852,90,29.6,45.0,0.407,735.1,2.1,1.050*
2018-07-02 00:51:00,-2.437E-01,4C000000*,-702.6,970.661,91,29.8,45.0,0.407,735.1,2.1,1.050*
2018-07-02 00:52:00,-3.225E-01,4C000000*,-702.6,969.448,90,29.8,45.1,0.407,735.1,2.1,1.050*
2018-07-02 00:53:00,-3.419E-01,4C000000*,-703.0,969.448,90,29.7,44.9,0.407,735.1,2.1,1.050*
2018-07-02 00:54:00,-2.804E-01,4C000000*,-702.6,969.448,90,29.7,45.2,0.407,735.1,2.1,1.050*
2018-07-02 00:55:00,-2.162E-01,4C000000*,-702.6,970.256,91,29.7,44.9,0.407,735.1,2.1,1.050*
2018-07-02 00:56:00,-2.842E-01,4C000000*,-702.6,970.661,90,29.9,45.1,0.407,735.1,2.1,1.050*
2018-07-02 00:57:00,-3.170E-01,4C000000*,-703.4,969.852,89,29.8,44.9,0.407,734.8,2.1,1.050*
2018-07-02 00:58:00,-3.316E-01,4C000000*,-702.6,969.448,89,29.9,45.0,0.407,735.1,2.1,1.050*
2018-07-02 00:59:00,-3.026E-01,4C000000*,-702.6,970.661,90,29.8,45.1,0.407,734.8,2.1,1.050*
2018-07-02 01:00:00,-3.358E-01,4C000000*,-702.6,970.661,90,29.8,44.9,0.407,734.8,2.1,1.050*
2018-07-02 01:01:00,-3.254E-01,4C000000*,-702.6,969.448,90,29.9,45.2,0.407,735.1,2.1,1.050*
2018-07-02 01:02:00,-3.294E-01,4C000000*,-702.6,969.852,90,29.8,44.9,0.407,734.8,2.1,1.050*
2018-07-02 01:03:00,-2.823E-01,4C000000*,-703.0,971.873,88,29.9,45.1,0.407,735.1,2.1,1.050*
2018-07-02 01:04:00,-3.879E-01,4C000000*,-702.6,971.065,91,29.9,44.9,0.407,734.8,2.1,1.050*
2018-07-02 01:05:00,-3.214E-01,4C000000*,-702.6,970.661,89,29.8,45.0,0.407,735.1,2.1,1.050*
2018-07-02 01:06:00,-3.124E-01,4C000000*,-703.0,970.256,89,29.9,45.1,0.407,734.8,2.1,1.050*
2018-07-02 01:07:00,-3.214E-01,4C000000*,-702.6,971.469,89,29.9,44.9,0.407,734.5,2.1,1.050*
2018-07-02 01:08:00,-2.827E-01,4C000000*,-702.6,971.469,89,29.9,45.1,0.407,734.5,2.1,1.050*
2018-07-02 01:09:00,-2.735E-01,4C000000*,-703.0,969.448,90,29.9,44.9,0.407,734.8,2.1,1.050*
2018-07-02 01:10:00,-2.992E-01,4C000000*,-702.6,970.256,90,29.9,45.1,0.406,734.5,2.1,1.050*
2018-07-02 01:11:00,-3.251E-01,4C000000*,-702.6,971.873,89,29.9,44.8,0.407,734.2,2.1,1.050*
2018-07-02 01:12:00,-2.898E-01,4C000000*,-702.6,972.278,90,29.9,45.0,0.407,734.8,2.1,1.050*
2018-07-02 01:13:00,-3.053E-01,4C000000*,-702.3,970.256,89,29.9,45.1,0.407,734.5,2.1,1.050*
2018-07-02 01:14:00,-2.995E-01,4C000000*,-702.3,971.469,90,29.9,44.8,0.407,734.5,2.1,1.050*
2018-07-02 01:15:00,-3.175E-01,4C000000*,-702.6,970.661,90,30.0,45.0,0.407,734.5,2.1,1.050*
2018-07-02 01:16:00,-2.661E-01,4C000000*,-702.6,969.852,89,30.0,45.0,0.407,734.5,2.1,1.050*
2018-07-02 01:17:00,-2.950E-01,4C000000*,-702.6,970.661,90,30.0,45.1,0.407,734.5,2.1,1.050*
2018-07-02 01:18:00,-2.875E-01,4C000000*,-702.6,970.661,88,30.0,45.1,0.407,734.5,2.1,1.050*
2018-07-02 01:19:00,-2.900E-01,4C000000*,-702.6,970.661,91,30.0,44.9,0.407,734.5,2.1,1.050*
2018-07-02 01:20:00,-2.974E-01,4C000000*,-702.6,970.256,89,30.0,45.1,0.407,734.5,2.1,1.050*
2018-07-02 01:21:00,-3.083E-01,4C000000*,-703.0,970.661,90,30.0,44.8,0.407,734.5,2.1,1.050*
2018-07-02 01:22:00,-2.967E-01,4C000000*,-702.6,970.661,89,30.0,45.1,0.407,734.5,2.1,1.050*
2018-07-02 01:23:00,-3.706E-01,4C000000*,-702.6,971.065,89,30.0,44.9,0.407,734.5,2.1,1.050*
2018-07-02 01:24:00,-2.813E-01,4C000000*,-702.3,971.065,90,30.1,45.0,0.407,734.8,2.1,1.050*
2018-07-02 01:25:00,-2.518E-01,4C000000*,-702.6,969.044,90,30.0,45.1,0.407,734.5,2.1,1.050*
2018-07-02 01:26:00,-2.799E-01,4C000000*,-703.0,971.065,90,30.0,44.9,0.407,734.5,2.1,1.050*
2018-07-02 01:27:00,-2.870E-01,4C000000*,-702.6,971.065,89,30.0,45.0,0.407,734.2,2.1,1.050*
2018-07-02 01:28:00,-2.911E-01,4C000000*,-702.6,971.065,91,30.1,44.9,0.407,734.5,2.1,1.050*
2018-07-02 01:29:00,-2.550E-01,4C000000*,-702.6,971.873,91,30.1,45.2,0.407,734.5,2.1,1.050*
2018-07-02 01:30:00,-3.695E-01,4C000000*,-702.6,971.065,88,30.1,44.9,0.407,734.5,2.1,1.050*
2018-07-02 01:31:00,-3.419E-01,4C000000*,-702.3,970.661,90,30.1,45.1,0.407,734.5,2.1,1.050*
2018-07-02 01:32:00,-3.184E-01,4C000000*,-702.3,968.639,90,30.1,44.9,0.407,734.5,2.1,1.050*
2018-07-02 01:33:00,-3.236E-01,4C000000*,-703.0,971.065,90,30.1,45.0,0.407,734.5,2.1,1.050*
2018-07-02 01:34:00,-3.238E-01,4C000000*,-703.0,969.852,90,30.1,45.0,0.407,734.2,2.1,1.050*
2018-07-02 01:35:00,-2.893E-01,4C000000*,-702.6,970.256,88,30.1,44.9,0.407,734.2,2.1,1.050*
2018-07-02 01:36:00,-2.505E-01,4C000000*,-702.6,970.661,90,30.1,45.2,0.407,734.2,2.1,1.050*
2018-07-02 01:37:00,-2.500E-01,4C000000*,-702.6,969.448,89,30.1,44.8,0.407,734.2,2.1,1.050*
2018-07-02 01:38:00,-3.330E-01,4C000000*,-702.6,970.661,91,30.1,45.1,0.407,734.2,2.1,1.050*
2018-07-02 01:39:00,-3.046E-01,4C000000*,-702.6,970.661,91,30.1,44.9,0.407,733.9,2.1,1.050*
2018-07-02 01:40:00,-3.565E-01,4C000000*,-702.6,971.065,91,30.2,45.0,0.407,734.2,2.1,1.050*
2018-07-02 01:41:00,-4.054E-01,4C000000*,-702.6,970.256,90,30.2,45.1,0.407,733.9,2.1,1.050*
2018-07-02 01:42:00,-2.893E-01,4C000000*,-702.6,970.256,91,30.2,44.9,0.407,734.2,2.1,1.050*
2018-07-02 01:43:00,-3.383E-01,4C000000*,-702.6,969.852,89,30.1,45.2,0.407,734.2,2.1,1.050*
2018-07-02 01:44:00,-2.913E-01,4C000000*,-702.6,970.256,90,30.2,44.8,0.407,734.2,2.1,1.050*
2018-07-02 01:45:00,-3.845E-01,4C000000*,-702.6,970.256,89,30.2,45.1,0.407,733.9,2.1,1.050*
2018-07-02 01:46:00,-2.488E-01,4C000000*,-702.6,970.256,89,30.2,44.9,0.406,733.9,2.1,1.050*
2018-07-02 01:47:00,-2.691E-01,4C000000*,-702.3,969.448,91,30.1,45.0,0.407,734.2,2.1,1.050*
2018-07-02 01:48:00,-3.382E-01,4C000000*,-702.6,970.256,89,30.2,45.1,0.407,733.9,2.1,1.050*
2018-07-02 01:49:00,-3.108E-01,4C000000*,-702.6,969.448,91,30.2,44.9,0.406,734.2,2.1,1.050*
2018-07-02 01:50:00,-2.957E-01,4C000000*,-702.6,970.661,87,30.2,45.1,0.407,734.2,2.1,1.050*
2018-07-02 01:51:00,-3.484E-01,4C000000*,-702.6,970.256,89,30.2,44.9,0.407,734.2,2.1,1.050*
2018-07-02 01:52:00,-2.705E-01,4C000000*,-702.3,970.661,91,30.2,45.1,0.407,734.2,2.1,1.050*
2018-07-02 01:53:00,-3.339E-01,4C000000*,-702.6,969.448,91,30.2,44.9,0.406,733.9,2.1,1.050*
2018-07-02 01:54:00,-2.553E-01,4C000000*,-702.6,969.852,89,30.3,45.0,0.407,733.9,2.1,1.050*
2018-07-02 01:55:00,-2.686E-01,4C000000*,-702.6,970.256,91,30.3,45.1,0.406,734.2,2.1,1.050*
2018-07-02 01:56:00,-3.125E-01,4C000000*,-703.0,970.661,89,30.2,44.9,0.407,734.2,2.1,1.050*
2018-07-02 01:57:00,-2.727E-01,4C000000*,-702.6,970.256,90,30.3,45.1,0.407,733.9,2.1,1.050*
2018-07-02 01:58:00,-2.714E-01,4C000000*,-702.3,969.448,89,30.3,44.9,0.407,734.2,2.1,1.050*
2018-07-02 01:59:00,-3.489E-01,4C000000*,-702.6,970.661,88,30.3,45.2,0.406,733.9,2.1,1.050*
2018-07-02 02:00:00,-2.747E-01,4C000000*,-702.6,969.852,90,30.3,44.9,0.407,733.9,2.1,1.050*
2018-07-02 02:01:00,-3.394E-01,4C000000*,-703.0,970.256,90,30.3,45.2,0.406,733.9,2.1,1.050*
2018-07-02 02:02:00,-2.600E-01,4C000000*,-702.6,971.065,89,30.3,44.9,0.407,733.6,2.1,1.050*
2018-07-02 02:03:00,-2.308E-01,4C000000*,-702.6,970.256,90,30.3,44.9,0.407,733.9,2.1,1.050*
2018-07-02 02:04:00,-3.695E-01,4C000000*,-702.3,970.661,88,30.3,45.1,0.407,733.3,2.1,1.050*
2018-07-02 02:05:00,-3.498E-01,4C000000*,-702.6,969.852,90,30.3,44.9,0.407,733.9,2.1,1.050*
2018-07-02 02:06:00,-3.368E-01,4C000000*,-702.6,969.448,91,30.3,45.3,0.406,733.6,2.1,1.050*
2018-07-02 02:07:00,-1.753E-01,4C000000*,-702.6,970.661,90,30.3,44.9,0.406,733.6,2.1,1.050*
2018-07-02 02:08:00,-3.711E-01,4C000000*,-702.3,969.852,89,30.3,45.1,0.406,733.6,2.1,1.050*
2018-07-02 02:09:00,-3.252E-01,4C000000*,-703.0,969.044,90,30.4,44.9,0.406,733.3,2.1,1.050*
2018-07-02 02:10:00,-2.532E-01,4C000000*,-702.6,969.448,89,30.3,45.0,0.407,733.6,2.1,1.050*
2018-07-02 02:11:00,-3.671E-01,4C000000*,-702.6,969.448,90,30.4,45.1,0.406,733.6,2.1,1.050*
2018-07-02 02:12:00,-1.927E-01,4C000000*,-702.6,970.256,90,30.4,44.9,0.407,733.3,2.1,1.050*
2018-07-02 02:13:00,-2.735E-01,4C000000*,-703.0,970.256,90,30.4,45.2,0.406,733.3,2.1,1.050*
2018-07-02 02:14:00,-2.657E-01,4C000000*,-702.6,970.661,89,30.4,44.8,0.407,733.3,2.1,1.050*
2018-07-02 02:15:00,-3.644E-01,4C000000*,-702.6,968.639,90,30.4,45.1,0.407,733.3,2.1,1.050*
2018-07-02 02:16:00,-3.462E-01,4C000000*,-702.6,969.852,90,30.4,44.9,0.407,733.6,2.1,1.050*
2018-07-02 02:17:00,-2.817E-01,4C000000*,-702.6,969.852,91,30.4,45.1,0.406,733.6,2.1,1.050*
2018-07-02 02:18:00,-3.272E-01,4C000000*,-702.6,971.065,89,30.4,45.0,0.407,733.6,2.1,1.050*
2018-07-02 02:19:00,-2.566E-01,4C000000*,-702.3,970.661,90,30.4,44.9,0.406,733.3,2.1,1.050*
2018-07-02 02:20:00,-4.070E-01,4C000000*,-702.6,969.852,90,30.4,45.2,0.406,733.6,2.1,1.050*
2018-07-02 02:21:00,-2.686E-01,4C000000*,-702.6,969.448,90,30.4,44.9,0.406,733.6,2.1,1.050*
2018-07-02 02:22:00,-3.542E-01,4C000000*,-702.6,969.852,90,30.5,45.1,0.406,733.6,2.1,1.050*
2018-07-02 02:23:00,-3.290E-01,4C000000*,-702.6,969.044,89,30.4,44.9,0.406,733.6,2.1,1.050*
2018-07-02 02:24:00,-3.284E-01,4C000000*,-702.6,969.448,90,30.4,45.1,0.406,733.6,2.1,1.050*
2018-07-02 02:25:00,-2.673E-01,4C000000*,-702.6,970.256,89,30.4,45.0,0.407,733.6,2.1,1.050*
2018-07-02 02:26:00,-3.441E-01,4C000000*,-702.6,969.448,89,30.5,44.9,0.406,733.9,2.1,1.050*
2018-07-02 02:27:00,-2.707E-01,4C000000*,-702.6,971.469,90,30.5,45.1,0.406,733.6,2.1,1.050*
2018-07-02 02:28:00,-3.197E-01,4C000000*,-703.0,968.235,90,30.4,44.9,0.406,733.9,2.1,1.050*
2018-07-02 02:29:00,-3.441E-01,4C000000*,-702.6,969.044,90,30.4,45.2,0.406,733.9,2.1,1.050*
2018-07-02 02:30:00,-3.814E-01,4C000000*,-702.6,970.661,91,30.4,44.9,0.406,733.6,2.1,1.050*
2018-07-02 02:31:00,-3.426E-01,4C000000*,-702.6,969.852,89,30.5,45.1,0.407,733.9,2.1,1.050*
2018-07-02 02:32:00,-3.030E-01,4C000000*,-702.6,971.065,91,30.5,45.0,0.407,733.9,2.1,1.050*
2018-07-02 02:33:00,-3.083E-01,4C000000*,-702.6,970.256,90,30.5,44.9,0.407,733.6,2.1,1.050*
2018-07-02 02:34:00,-2.897E-01,4C000000*,-702.6,968.639,90,30.5,45.1,0.407,733.9,2.1,1.050*
2018-07-02 02:35:00,-2.743E-01,4C000000*,-702.6,969.448,90,30.5,44.9,0.407,733.9,2.1,1.050*
2018-07-02 02:36:00,-3.978E-01,4C000000*,-702.3,968.639,89,30.5,45.2,0.406,733.6,2.1,1.050*
2018-07-02 02:37:00,-2.717E-01,4C000000*,-702.6,970.256,89,30.5,44.9,0.406,733.6,2.1,1.050*
2018-07-02 02:38:00,-3.230E-01,4C000000*,-702.6,970.256,91,30.5,45.0,0.406,733.9,2.1,1.050*
2018-07-02 02:39:00,-3.139E-01,4C000000*,-703.0,969.448,89,30.5,45.1,0.406,733.6,2.1,1.050*
2018-07-02 02:40:00,-3.976E-01,4C000000*,-702.6,968.639,90,30.4,44.8,0.406,733.6,2.1,1.050*
2018-07-02 02:41:00,-3.289E-01,4C000000*,-702.6,969.044,90,30.6,45.2,0.406,733.3,2.1,1.050*
2018-07-02 02:42:00,-2.889E-01,4C000000*,-702.6,969.044,91,30.5,44.8,0.406,733.6,2.1,1.050*
2018-07-02 02:43:00,-3.330E-01,4C000000*,-702.6,970.256,90,30.6,45.1,0.406,733.6,2.1,1.050*
2018-07-02 02:44:00,-2.825E-01,4C000000*,-702.6,969.448,91,30.6,45.0,0.406,733.6,2.1,1.050*
2018-07-02 02:45:00,-2.909E-01,4C000000*,-702.6,968.235,90,30.6,45.0,0.406,733.6,2.1,1.050*
2018-07-02 02:46:00,-2.957E-01,4C000000*,-702.3,969.852,89,30.6,45.1,0.406,733.3,2.1,1.050*
2018-07-02 02:47:00,-2.968E-01,4C000000*,-702.6,969.852,89,30.6,44.8,0.407,733.6,2.1,1.050*
2018-07-02 02:48:00,-2.856E-01,4C000000*,-702.3,970.661,91,30.6,45.0,0.407,733.6,2.1,1.050*
2018-07-02 02:49:00,-2.822E-01,4C000000*,-702.3,968.639,89,30.6,45.1,0.407,733.3,2.1,1.050*
2018-07-02 02:50:00,-2.758E-01,4C000000*,-702.6,970.256,89,30.5,44.9,0.407,733.6,2.1,1.050*
2018-07-02 02:51:00,-2.720E-01,4C000000*,-702.3,970.256,91,30.7,45.1,0.406,733.3,2.1,1.050*
2018-07-02 02:52:00,-3.056E-01,4C000000*,-702.6,969.852,91,30.6,44.9,0.406,733.3,2.1,1.050*
2018-07-02 02:53:00,-3.004E-01,4C000000*,-702.6,969.448,89,30.6,45.2,0.406,733.3,2.1,1.050*
2018-07-02 02:54:00,-3.449E-01,4C000000*,-702.6,969.044,90,30.6,44.9,0.406,733.3,2.1,1.050*
2018-07-02 02:55:00,-2.999E-01,4C000000*,-702.6,968.639,90,30.7,45.1,0.406,733.3,2.1,1.050*
2018-07-02 02:56:00,-3.509E-01,4C000000*,-701.9,969.448,89,30.6,45.0,0.406,733.3,2.1,1.050*
2018-07-02 02:57:00,-3.210E-01,4C000000*,-702.6,969.448,90,30.7,44.9,0.406,733.3,2.1,1.050*
2018-07-02 02:58:00,-3.617E-01,4C000000*,-702.6,970.256,89,30.7,45.0,0.406,733.0,2.1,1.050*
2018-07-02 02:59:00,-3.550E-01,4C000000*,-702.6,969.044,90,30.7,44.9,0.406,733.3,2.1,1.050*
2018-07-02 03:00:00,-2.813E-01,4C000000*,-702.6,970.256,90,30.7,45.1,0.407,733.3,2.1,1.050*
2018-07-02 03:01:00,-3.422E-01,4C000000*,-703.0,969.852,89,30.7,44.8,0.406,733.0,2.1,1.050*
2018-07-02 03:02:00,-3.636E-01,4C000000*,-702.6,969.852,90,30.8,45.1,0.406,733.0,2.1,1.050*
2018-07-02 03:03:00,-3.392E-01,4C000000*,-703.0,969.448,89,30.7,45.0,0.406,733.3,2.1,1.050*
2018-07-02 03:04:00,-3.284E-01,4C000000*,-702.6,969.852,90,30.7,45.1,0.406,733.3,2.1,1.050*
2018-07-02 03:05:00,-3.096E-01,4C000000*,-702.6,968.639,90,30.7,45.0,0.406,733.3,2.1,1.050*
2018-07-02 03:06:00,-4.209E-01,4C000000*,-702.6,971.065,90,30.7,44.8,0.406,733.3,2.1,1.050*
2018-07-02 03:07:00,-3.548E-01,4C000000*,-702.6,971.873,91,30.7,45.2,0.406,733.3,2.1,1.050*
2018-07-02 03:08:00,-3.043E-01,4C000000*,-702.6,969.852,90,30.7,44.9,0.406,733.3,2.1,1.050*
2018-07-02 03:09:00,-3.414E-01,4C000000*,-702.6,970.661,90,30.8,45.1,0.407,733.0,2.1,1.050*
2018-07-02 03:10:00,-2.701E-01,4C000000*,-703.0,970.256,89,30.7,44.9,0.406,733.0,2.1,1.050*
2018-07-02 03:11:00,-3.734E-01,4C000000*,-702.6,969.448,89,30.8,45.0,0.406,733.3,2.1,1.050*
2018-07-02 03:12:00,-3.035E-01,4C000000*,-702.6,969.044,89,30.8,45.1,0.407,733.0,2.1,1.050*
2018-07-02 03:13:00,-3.412E-01,4C000000*,-702.6,969.852,90,30.8,45.0,0.406,733.0,2.1,1.050*
2018-07-02 03:14:00,-3.027E-01,4C000000*,-702.6,970.256,91,30.8,45.1,0.406,733.0,2.1,1.050*
2018-07-02 03:15:00,-3.389E-01,4C000000*,-702.6,971.065,90,30.8,44.8,0.406,733.3,2.1,1.050*
2018-07-02 03:16:00,-2.656E-01,4C000000*,-702.6,969.852,90,30.8,45.1,0.407,733.3,2.1,1.050*
2018-07-02 03:17:00,-2.867E-01,4C000000*,-703.0,969.448,89,30.8,44.9,0.407,733.0,2.1,1.050*
2018-07-02 03:18:00,-2.577E-01,4C000000*,-702.6,969.852,90,30.8,45.1,0.406,733.3,2.1,1.050*
2018-07-02 03:19:00,-3.745E-01,4C000000*,-702.6,969.852,90,30.8,44.9,0.406,733.3,2.1,1.050*
2018-07-02 03:20:00,-3.189E-01,4C000000*,-702.6,969.852,90,30.9,45.2,0.406,733.0,2.1,1.050*
2018-07-02 03:21:00,-3.348E-01,4C000000*,-702.6,970.256,90,30.8,45.0,0.406,732.7,2.1,1.050*
2018-07-02 03:22:00,-3.042E-01,4C000000*,-702.6,969.852,89,30.9,45.1,0.407,733.0,2.1,1.050*
2018-07-02 03:23:00,-2.916E-01,4C000000*,-702.6,969.448,89,30.8,45.1,0.406,733.0,2.1,1.050*
2018-07-02 03:24:00,-3.840E-01,4C000000*,-702.6,970.661,90,30.9,44.9,0.406,732.7,2.1,1.050*
2018-07-02 03:25:00,-3.446E-01,4C000000*,-703.4,969.044,89,30.9,45.2,0.407,733.0,2.1,1.050*
2018-07-02 03:26:00,-3.810E-01,4C000000*,-702.3,970.661,89,30.9,44.9,0.406,733.0,2.1,1.050*
2018-07-02 03:27:00,-2.794E-01,4C000000*,-703.0,970.661,88,30.9,45.1,0.406,733.0,2.1,1.050*
2018-07-02 03:28:00,-4.213E-01,4C000000*,-702.6,969.852,90,30.9,44.9,0.406,733.0,2.1,1.050*
2018-07-02 03:29:00,-3.224E-01,4C000000*,-702.6,969.044,91,30.9,45.1,0.406,733.0,2.1,1.050*
2018-07-02 03:30:00,-3.067E-01,4C000000*,-702.6,970.256,90,30.9,45.0,0.406,732.7,2.1,1.050*
2018-07-02 03:31:00,-2.694E-01,4C000000*,-702.6,968.235,90,30.9,44.9,0.406,732.7,2.1,1.050*
2018-07-02 03:32:00,-3.004E-01,4C000000*,-702.6,969.852,90,30.9,45.2,0.406,733.0,2.1,1.050*
2018-07-02 03:33:00,-3.627E-01,4C000000*,-702.6,969.448,89,30.9,44.8,0.406,733.0,2.1,1.050*
2018-07-02 03:34:00,-3.193E-01,4C000000*,-702.6,968.639,89,30.9,45.0,0.406,732.7,2.1,1.050*
2018-07-02 03:35:00,-3.529E-01,4C000000*,-702.6,969.448,89,30.9,45.1,0.406,732.7,2.1,1.050*
2018-07-02 03:36:00,-2.944E-01,4C000000*,-702.6,969.044,90,30.9,44.9,0.406,732.7,2.1,1.050*
2018-07-02 03:37:00,-3.099E-01,4C000000*,-702.6,969.448,89,30.9,45.2,0.406,733.0,2.1,1.050*
2018-07-02 03:38:00,-3.333E-01,4C000000*,-702.6,970.661,91,30.9,44.8,0.406,732.7,2.1,1.050*
2018-07-02 03:39:00,-2.769E-01,4C000000*,-702.6,969.044,89,30.9,45.2,0.406,732.7,2.1,1.050*
2018-07-02 03:40:00,-3.214E-01,4C000000*,-702.3,969.852,89,30.9,44.9,0.406,732.3,2.1,1.050*
2018-07-02 03:41:00,-3.117E-01,4C000000*,-702.6,969.044,90,31.0,45.0,0.406,732.7,2.1,1.050*
2018-07-02 03:42:00,-3.277E-01,4C000000*,-702.6,969.852,90,31.0,45.1,0.406,732.3,2.1,1.050*
2018-07-02 03:43:00,-2.648E-01,4C000000*,-702.6,968.639,89,31.0,44.9,0.406,732.7,2.1,1.050*
2018-07-02 03:44:00,-3.159E-01,4C000000*,-702.6,970.256,91,31.0,45.2,0.406,732.3,2.1,1.050*
2018-07-02 03:45:00,-2.754E-01,4C000000*,-702.3,969.448,90,31.1,44.9,0.406,732.7,2.1,1.050*
2018-07-02 03:46:00,-2.871E-01,4C000000*,-702.6,970.661,90,31.0,45.1,0.406,732.7,2.1,1.050*
2018-07-02 03:47:00,-3.353E-01,4C000000*,-703.0,969.044,89,31.1,45.0,0.406,732.3,2.1,1.050*
2018-07-02 03:48:00,-2.249E-01,4C000000*,-703.0,971.065,91,31.1,45.1,0.406,732.3,2.1,1.050*
2018-07-02 03:49:00,-3.500E-01,4C000000*,-702.6,969.044,89,31.1,45.1,0.406,732.3,2.1,1.050*
2018-07-02 03:50:00,-3.543E-01,4C000000*,-702.6,970.661,89,31.0,44.9,0.406,732.3,2.1,1.050*
2018-07-02 03:51:00,-3.048E-01,4C000000*,-702.6,969.044,90,31.0,45.1,0.406,732.3,2.1,1.050*
2018-07-02 03:52:00,-2.907E-01,4C000000*,-702.6,969.044,90,31.1,44.8,0.406,732.7,2.1,1.050*
2018-07-02 03:53:00,-3.464E-01,4C000000*,-702.6,969.448,90,31.1,45.1,0.406,732.7,2.1,1.050*
2018-07-02 03:54:00,-3.204E-01,4C000000*,-702.6,969.044,90,31.0,44.9,0.406,732.3,2.1,1.050*
2018-07-02 03:55:00,-3.588E-01,4C000000*,-702.6,969.448,91,31.1,45.2,0.406,732.7,2.1,1.050*
2018-07-02 03:56:00,-2.630E-01,4C000000*,-702.3,971.065,90,31.1,45.0,0.406,732.3,2.1,1.050*
2018-07-02 03:57:00,-2.910E-01,4C000000*,-703.0,969.852,90,31.1,44.9,0.406,732.3,2.1,1.050*
2018-07-02 03:58:00,-3.546E-01,4C000000*,-702.6,969.448,91,31.1,45.2,0.406,732.3,2.1,1.050*
2018-07-02 03:59:00,-3.677E-01,4C000000*,-702.6,969.448,90,31.1,44.9,0.406,732.3,2.1,1.050*
2018-07-02 04:00:00,-2.685E-01,4C000000*,-702.3,969.852,90,31.2,45.1,0.405,732.3,2.1,1.050*
2018-07-02 04:01:00,-3.561E-01,4C000000*,-701.9,970.661,90,31.2,44.8,0.406,732.3,2.1,1.050*
2018-07-02 04:02:00,-2.388E-01,4C000000*,-702.6,970.256,90,31.2,45.2,0.406,732.3,2.1,1.050*
2018-07-02 04:03:00,-3.206E-01,4C000000*,-702.6,969.448,89,31.2,44.9,0.406,732.3,2.1,1.050*
2018-07-02 04:04:00,-2.727E-01,4C000000*,-702.6,971.065,91,31.1,45.0,0.406,732.3,2.1,1.050*
2018-07-02 04:05:00,-3.018E-01,4C000000*,-702.6,970.661,90,31.2,45.1,0.406,732.0,2.1,1.050*
2018-07-02 04:06:00,-1.943E-01,4C000000*,-703.0,968.235,90,31.1,44.9,0.406,732.3,2.1,1.050*
2018-07-02 04:07:00,-2.600E-01,4C000000*,-703.4,969.044,90,31.2,45.2,0.406,732.3,2.1,1.050*
2018-07-02 04:08:00,-2.556E-01,4C000000*,-702.6,969.044,91,31.1,44.8,0.406,732.0,2.1,1.050*
2018-07-02 04:09:00,-2.984E-01,4C000000*,-702.6,969.852,91,31.2,45.2,0.406,732.3,2.1,1.050*
2018-07-02 04:10:00,-2.739E-01,4C000000*,-702.6,969.448,90,31.2,44.9,0.406,732.0,2.1,1.050*
2018-07-02 04:11:00,-2.591E-01,4C000000*,-702.6,968.639,90,31.2,45.0,0.406,732.3,2.1,1.050*
2018-07-02 04:12:00,-3.239E-01,4C000000*,-702.6,968.639,89,31.2,45.0,0.406,732.0,2.1,1.050*
2018-07-02 04:13:00,-2.745E-01,4C000000*,-702.6,969.448,89,31.2,44.9,0.406,732.0,2.1,1.050*
2018-07-02 04:14:00,-2.799E-01,4C000000*,-702.6,969.448,90,31.2,45.2,0.406,732.0,2.1,1.050*
2018-07-02 04:15:00,-2.561E-01,4C000000*,-702.6,969.448,90,31.2,44.9,0.406,731.7,2.1,1.050*